OpenBCM V1.07b12 (Linux)

Packet Radio Mailbox

SR1BSZ

[Szczecin_PL JO73GK]

 Login: GUEST





  
I0OJJ  > KEPS     09.09.25 07:03z 313 Lines 14851 Bytes #8 (0) @ AMSAT
BID : ORB25252.1
Read: GUEST
Subj: 2Line Orbital Elements 25252.AMSAT
Path: SR1BSZ<EA2RCF<I0OJJ
Sent: 250909/0025z @:I0OJJ.ITA.EU [Rome] obcm1.08-10-g596e
From: I0OJJ @ I0OJJ.ITA.EU (Gustavo)
To:   KEPS @ AMSAT
X-Info: This message was generated automatically


QST de W1STR

AMSAT Orbital Elements for Amateur Satellites in TLE Format
From Orbital Analysis Office
New England Sci-Tech STEM Education Center
Natick MA September 09, 2025
To all radio amateurs


These element sets describe the orbits of various satellites 
in use by the amateur radio community. For details see:
www.amsat.org/keplerian-elements-formats/

A daily update of element sets is available at:
www.amsat.org/tle/daily-bulletin.txt
or without bulletin text:
www.amsat.org/tle/dailytle.txt


AO-07
1 07530U 74089B   25251.62957821 -.00000032  00000-0  93093-4 0  9992
2 07530 101.9978 256.8739 0011992 309.8886 173.5404 12.53691458325239
UO-11
1 14781U 84021B   25251.42575121  .00001625  00000-0  17565-3 0  9999
2 14781  97.7640 216.0535 0008878  45.3349 314.8591 14.89647611215160
AO-27
1 22825U 93061C   25251.12696737  .00000151  00000-0  74761-4 0  9990
2 22825  98.7286 313.0996 0008002 200.6311 159.4549 14.30826595666665
FO-29
1 24278U 96046B   25251.61987364  .00000007  00000-0  39700-4 0  9997
2 24278  98.5600 133.4777 0350851 106.6449 257.3513 13.53253343435085
NOAA-15
1 25338U 98030A   25251.61311292  .00000167  00000-0  85993-4 0  9993
2 25338  98.5325 274.5407 0011471  92.7277 267.5217 14.27013964421130
GO-32
1 25397U 98043D   25251.45244706  .00000107  00000-0  66496-4 0  9990
2 25397  98.9803 232.5081 0000863   2.8406 357.2777 14.24337044411223
ISS
1 25544U 98067A   25251.48563018  .00010058  00000-0  18276-3 0  9991
2 25544  51.6324 254.2080 0004252 315.3210  44.7436 15.50188612528080
NO-44
1 26931U 01043C   25251.45764768  .00000187  00000-0  10117-3 0  9990
2 26931  67.0488 252.8655 0007023 275.5403  84.4898 14.31774945250112
SO-50
1 27607U 02058C   25251.46439005  .00001666  00000-0  22101-3 0  9991
2 27607  64.5516 279.9423 0065684 314.8387  44.7392 14.81863718222697
CO-55
1 27844U 03031E   25251.60032241  .00000393  00000-0  19010-3 0  9994
2 27844  98.6789 258.7117 0008449 285.7518  74.2729 14.24062886151599
CO-57
1 27848U 03031J   25251.59151621  .00000337  00000-0  16792-3 0  9992
2 27848  98.6816 258.6393 0008540 305.5285  54.5097 14.23388263151311
RS-22
1 27939U 03042A   25251.59883693  .00001499  00000-0  24377-3 0  9994
2 27939  98.3364  63.3051 0012581  82.4019   5.3117 14.72568983174095
CO-58
1 28895U 05043F   25251.38612893  .00002050  00000-0  33960-3 0  9990
2 28895  98.2624  36.9495 0014805  23.7999 336.3888 14.71318663 60294
CO-65
1 32785U 08021C   25251.56974041  .00005546  00000-0  39148-3 0  9995
2 32785  97.7945 223.5018 0007337 262.2040  97.8353 15.05340799942761
CO-66
1 32791U 08021J   25251.43872804  .00015387  00000-0  69792-3 0  9994
2 32791  97.7356 233.6741 0003411 170.4666 189.6634 15.20915162944293
RS-30
1 32953U 08025A   25251.58465144  .00000015  00000-0  34250-4 0  9993
2 32953  82.5072 170.5954 0018289 204.4940 155.5273 12.43167933784703
NOAA-19
1 33591U 09005A   25251.59519858  .00000143  00000-0  10003-3 0  9995
2 33591  98.9897 316.7790 0014819 106.0511 254.2294 14.13404975854703
SRMSAT
1 37841U 11058D   25251.44844940  .00000453  00000-0  10242-3 0  9994
2 37841  19.9730 324.6565 0011792 345.3714 112.6024 14.11462212717962
ZACUBE-1
1 39417U 13066B   25251.35649454  .00005960  00000-0  50635-3 0  9997
2 39417  97.7872 207.9697 0045585 108.1831 252.4362 14.97439939638497
Delfi-N3xt
1 39428U 13066N   25251.62678841  .00009041  00000-0  89298-3 0  9992
2 39428  97.8293 168.2948 0084800  61.1474 299.8221 14.89470805632625
GOMX-1
1 39430U 13066Q   25251.56174935  .00002113  00000-0  33270-3 0  9995
2 39430  97.6730 104.6198 0130246 261.1268  97.5173 14.67975268628579
LO-74
1 39440U 13066AA  25251.39010035  .00004530  00000-0  45309-3 0  9998
2 39440  97.8544 195.3806 0059560 239.3995 120.1340 14.90625749634962
AO-73
1 39444U 13066AE  25251.56389745  .00008874  00000-0  64143-3 0  9990
2 39444  97.7921 213.9289 0043470  80.2689 280.3441 15.03523357637255
DTUSAT-2
1 40030U 14033W   25250.88430051  .00008726  00000-0  54866-3 0  9996
2 40030  98.0638 227.1822 0010856 111.4730 248.7656 15.09443748610015
EO-80
1 40032U 14033Y   25251.49648602  .00008487  00000-0  53248-3 0  9996
2 40032  98.0519 227.3536 0010029  61.6036 298.6201 15.09540407610083
LILACSAT-2
1 40908U 15049K   25251.58615378  .00012920  00000-0  31494-3 0  9996
2 40908  97.5027 274.2416 0008926 179.9319 180.1930 15.40996920552237
IO-86
1 40931U 15052B   25151.18580175  .00001241  00000-0  78118-4 0  9996
2 40931   6.0006  24.0987 0012733 338.8432  21.1169 14.78805930523159
Horyu-4
1 41340U 16012D   25251.29225716  .00031744  00000-0  73887-3 0  9996
2 41340  30.9950 240.2327 0006629 276.8394  83.1498 15.41038650526775
Lapan A3
1 41603U 16040E   25251.59728499  .00004028  00000-0  13902-3 0  9995
2 41603  97.1409 252.6843 0009168 311.4321  48.6132 15.30476800511707
CAS-2T
1 41847U 16066G   25251.61799969  .00001090  00000-0  16511-3 0  9991
2 41847  98.4137 325.2722 0344138 263.0123  93.1818 14.43700267464155
CAS-4B
1 42759U 17034B   25251.62510554  .00193854  00000-0  93496-3 0  9999
2 42759  43.0009 133.7029 0023214 221.5267 138.3842 15.80865625456917
CAS-4A
1 42761U 17034D   25251.61300976  .00235019  00000-0  96243-3 0  9999
2 42761  43.0039 129.4351 0024092 227.0844 132.8007 15.84184208456940
TechnoSat
1 42829U 17042E   25251.44882017  .00003789  00000-0  29032-3 0  9994
2 42829  97.4012  55.8774 0016809 342.4941  17.5703 15.02311199444363
AO-91
1 43017U 17073E   25251.58836146  .00009890  00000-0  49346-3 0  9994
2 43017  97.5098 120.0780 0167559 215.8457 143.1435 15.06194926422909
S-Net D
1 43186U 18014G   25251.61548295  .00006473  00000-0  37324-3 0  9993
2 43186  97.5513 153.5902 0007062 272.6438  87.3984 15.12695507416131
S-Net B
1 43187U 18014H   25251.62208389  .00006253  00000-0  36087-3 0  9993
2 43187  97.5517 153.5731 0007692 266.6585  93.3766 15.12673804416132
S-Net A
1 43188U 18014J   25251.61554405  .00006468  00000-0  37287-3 0  9997
2 43188  97.5528 153.7286 0007626 267.5267  92.5091 15.12701020416130
S-Net C
1 43189U 18014K   25251.62470371  .00006041  00000-0  34872-3 0  9992
2 43189  97.5541 153.7675 0009137 258.6632 101.3572 15.12669693414684
Ten-Koh
1 43677U 18084G   25251.47281308  .00002733  00000-0  21922-3 0  9990
2 43677  98.0816  67.3318 0005931 326.5277  33.5570 15.00987881373877
PO-101
1 43678U 18084H   25251.60180110  .00002225  00000-0  19013-3 0  9999
2 43678  98.1100  71.2531 0008604 357.0679   3.0491 14.98739503374014
QO-100
1 43700U 18090A   25251.52423733  .00000142  00000-0  00000-0 0  9993
2 43700   0.0126 163.9623 0001277  28.8651   9.5443  1.00270409 24859
MinXSS-2
1 43758U 18099A   25251.48418164  .00020684  00000-0  74442-3 0  9999
2 43758  97.4938 317.9401 0011374 189.2538 170.8493 15.28562920370840
AO-95
1 43770U 18099N   25251.42131495  .00010226  00000-0  49364-3 0  9992
2 43770  97.4833 308.5523 0008892 251.7602 108.2665 15.18828544370333
SNUSat 2
1 43782U 18099AA  25251.41228014  .00008226  00000-0  43229-3 0  9999
2 43782  97.4515 304.5368 0011638 191.5091 168.5878 15.15887031370250
SnugLite
1 43784U 18099AC  25251.10211108  .00011445  00000-0  54695-3 0  9999
2 43784  97.4326 303.9934 0003567 174.9210 185.2062 15.19173562370379
ITASat 1
1 43786U 18099AE  25251.58908877  .00006377  00000-0  35377-3 0  9993
2 43786  97.4480 303.9429 0012567 248.3214 111.6680 15.14038154370226
EAGLET 1
1 43790U 18099AJ  25251.37335695  .00005012  00000-0  31381-3 0  9993
2 43790  97.4674 303.3693 0010781 233.1110 126.9132 15.09783516369767
ESEO
1 43792U 18099AL  25251.55819435  .00001642  00000-0  12646-3 0  9992
2 43792  97.4369 295.5746 0011495 208.8722 151.1869 15.02919861369485
JO-97
1 43803U 18099AX  25251.13175650  .00013889  00000-0  59525-3 0  9996
2 43803  97.4579 309.4728 0007533 177.2571 182.8708 15.22850033370544
Suomi 100
1 43804U 18099AY  25251.43222025  .00010768  00000-0  50103-3 0  9995
2 43804  97.4641 308.7892 0012097 184.2122 175.9014 15.20057996370492
ISAT
1 43879U 18111D   25251.51141406  .00027735  00000-0  85501-3 0  9996
2 43879  97.5881 168.0892 0006064 216.0380 144.0454 15.33554089367619
UWE-4
1 43880U 18111E   25251.29466087  .00018825  00000-0  67712-3 0  9992
2 43880  97.5827 165.6589 0008815 244.0455 115.9876 15.28630054367477
Sparrow
1 43881U 18111F   25251.28377505  .00027374  00000-0  80556-3 0  9998
2 43881  97.6045 171.1088 0003190 271.7987  88.2890 15.35042073367682
Prox-1
1 44339U 19036A   25251.18823907  .00013090  00000-0  15864-2 0  9994
2 44339  23.9959 185.8654 0006594  25.5082 334.5740 14.81789098331463
Taurus 1
1 44530U 19059C   25251.62028777  .00007819  00000-0  14045-2 0  9995
2 44530  98.6167  35.4456 0009767 113.5931 246.6298 14.66943015317281
Duchifat 3
1 44854U 19089C   25251.36008597  .00082179  00000-0  11371-2 0  9997
2 44854  36.9380 134.5998 0008265 308.3690  51.6327 15.55915539317110
TO-108
1 44881U 19093C   25251.61784506  .00001134  00000-0  13655-3 0  9991
2 44881  97.7862 325.3446 0012407 295.2760  64.7169 14.85777236309597
FloripaSat 1
1 44885U 19093G   25251.60498801  .00007138  00000-0  58674-3 0  9994
2 44885  97.8176 339.4338 0007729 260.8078  99.2271 14.99439960310387
RS-44
1 44909U 19096E   25251.47868242  .00000034  00000-0  84537-4 0  9995
2 44909  82.5254 166.9004 0218547  83.0327 279.5577 12.79743207266312
UPMSat 2
1 46276U 20061E   25251.48907674  .00220998  00000-0  81928-3 0  9995
2 46276  97.2308 329.8610 0002980 222.1067 137.9976 15.87545102279787
SALSAT
1 46495U 20068K   25251.52866585  .00007977  00000-0  33190-3 0  9993
2 46495  97.8690 233.8784 0010455 195.6177 164.4738 15.24012924272379
